Total_Precipitation_Accumulation
0.15 0.17 0.27 0.09 0.04 0.06 0.16 0.15 0.22 0.24 0.23 0.17 0.13 0.11 0.11 0.08 0.04 0.01 0.00 0.00 0.00 0.00 0.00 0.01 0.01 0.03 0.05 0.07 0.05 0.04 0.04 0.03 0.01 0.00 0.00 0.00 0.00 0.00
0.15 0.14 0.16 0.18 0.10 0.05 0.02 0.05 0.07 0.09 0.08 0.08 0.11 0.15 0.18 0.16 0.14 0.11 0.08 0.07 0.03 0.01 0.00 0.00 0.00 0.00 0.00 0.01 0.01 0.00 0.01 0.01 0.01 0.01 0.00 0.00 0.00 0.00
0.15 0.15 0.12 0.16 0.19 0.12 0.05 0.03 0.08 0.08 0.07 0.06 0.05 0.05 0.04 0.04 0.06 0.07 0.07 0.06 0.03 0.02 0.02 0.01 0.00 0.00 0.00 0.00 0.00 0.00 0.01 0.01 0.01 0.01 0.02 0.03 0.02 0.02
0.14 0.16 0.11 0.13 0.17 0.20 0.16 0.05 0.02 0.02 0.05 0.06 0.04 0.04 0.01 0.00 0.00 0.00 0.00 0.00 0.00 0.00 0.00 0.00 0.00 0.00 0.00 0.00 0.00 0.00 0.00 0.00 0.00 0.00 0.01 0.02 0.02 0.03
0.26 0.16 0.10 0.14 0.14 0.13 0.17 0.17 0.07 0.05 0.06 0.11 0.09 0.09 0.08 0.03 0.00 0.00 0.00 0.00 0.00 0.00 0.00 0.00 0.00 0.00 0.00 0.00 0.00 0.00 0.00 0.00 0.00 0.00 0.00 0.00 0.00 0.01
0.23 0.29 0.18 0.12 0.07 0.12 0.09 0.09 0.08 0.06 0.04 0.05 0.08 0.09 0.07 0.04 0.02 0.01 0.00 0.00 0.00 0.00 0.00 0.00 0.00 0.00 0.00 0.00 0.00 0.00 0.00 0.00 0.00 0.00 0.00 0.00 0.00 0.00
0.20 0.22 0.25 0.22 0.17 0.12 0.11 0.07 0.05 0.06 0.06 0.03 0.02 0.02 0.03 0.04 0.03 0.01 0.01 0.00 0.00 0.00 0.00 0.00 0.00 0.00 0.00 0.00 0.00 0.00 0.00 0.00 0.00 0.00 0.00 0.00 0.00 0.00
0.14 0.17 0.19 0.21 0.19 0.18 0.11 0.07 0.05 0.03 0.04 0.05 0.03 0.01 0.00 0.00 0.01 0.02 0.02 0.01 0.00 0.00 0.00 0.00 0.00 0.00 0.00 0.00 0.00 0.00 0.00 0.00 0.00 0.00 0.00 0.00 0.00 0.00
0.08 0.10 0.17 0.16 0.13 0.11 0.15 0.13 0.07 0.03 0.02 0.01 0.01 0.01 0.00 0.00 0.00 0.00 0.00 0.00 0.00 0.00 0.00 0.00 0.00 0.00 0.00 0.00 0.00 0.00 0.00 0.00 0.00 0.00 0.00 0.01 0.01 0.01
0.12 0.06 0.08 0.14 0.12 0.10 0.11 0.15 0.10 0.05 0.02 0.01 0.00 0.00 0.00 0.00 0.00 0.00 0.00 0.00 0.00 0.00 0.00 0.00 0.00 0.00 0.00 0.00 0.00 0.00 0.00 0.00 0.00 0.00 0.00 0.01 0.01 0.02
0.12 0.17 0.09 0.06 0.13 0.14 0.11 0.12 0.12 0.07 0.04 0.02 0.01 0.01 0.00 0.01 0.00 0.00 0.01 0.01 0.01 0.00 0.00 0.00 0.00 0.00 0.00 0.00 0.00 0.00 0.00 0.01 0.01 0.01 0.02 0.02 0.04 0.05
0.47 0.18 0.28 0.11 0.07 0.11 0.11 0.12 0.10 0.07 0.05 0.04 0.04 0.02 0.01 0.01 0.01 0.00 0.00 0.00 0.00 0.00 0.00 0.00 0.00 0.00 0.00 0.00 0.00 0.00 0.00 0.00 0.01 0.01 0.02 0.03 0.05 0.04
0.97 0.48 0.28 0.31 0.14 0.08 0.11 0.10 0.09 0.04 0.05 0.05 0.05 0.05 0.02 0.00 0.00 0.00 0.00 0.00 0.00 0.00 0.01 0.01 0.00 0.00 0.00 0.00 0.00 0.00 0.00 0.00 0.00 0.01 0.03 0.04 0.06 0.07
0.68 0.85 0.54 0.37 0.28 0.17 0.11 0.09 0.09 0.09 0.07 0.06 0.06 0.07 0.05 0.03 0.01 0.01 0.00 0.00 0.00 0.00 0.00 0.01 0.00 0.00 0.00 0.01 0.00 0.00 0.00 0.00 0.00 0.01 0.02 0.07 0.11 0.12
0.63 0.67 0.77 0.69 0.39 0.32 0.25 0.17 0.11 0.09 0.08 0.09 0.05 0.03 0.03 0.02 0.05 0.03 0.01 0.00 0.01 0.01 0.01 0.00 0.00 0.01 0.01 0.02 0.01 0.01 0.02 0.00 0.00 0.00 0.02 0.03 0.05 0.04
0.52 0.59 0.57 0.60 0.64 0.47 0.47 0.42 0.26 0.15 0.10 0.06 0.05 0.04 0.02 0.04 0.04 0.06 0.05 0.03 0.02 0.01 0.01 0.01 0.02 0.01 0.02 0.02 0.02 0.01 0.00 0.00 0.00 0.01 0.02 0.02 0.04 0.06
0.34 0.41 0.53 0.46 0.58 0.54 0.46 0.50 0.48 0.43 0.25 0.11 0.07 0.09 0.13 0.06 0.07 0.08 0.05 0.06 0.05 0.01 0.00 0.00 0.01 0.01 0.01 0.01 0.01 0.00 0.00 0.00 0.00 0.00 0.01 0.01 0.01 0.01
0.28 0.32 0.45 0.52 0.50 0.62 0.49 0.44 0.52 0.58 0.50 0.28 0.14 0.11 0.11 0.17 0.13 0.08 0.07 0.06 0.05 0.02 0.01 0.01 0.01 0.01 0.01 0.01 0.01 0.00 0.00 0.01 0.00 0.00 0.00 0.00 0.00 0.00
0.30 0.28 0.32 0.45 0.53 0.59 0.57 0.50 0.43 0.50 0.53 0.56 0.37 0.22 0.17 0.12 0.21 0.16 0.08 0.07 0.07 0.06 0.05 0.05 0.04 0.03 0.03 0.02 0.01 0.02 0.01 0.01 0.00 0.00 0.00 0.00 0.00 0.00
0.42 0.29 0.26 0.32 0.45 0.51 0.59 0.55 0.50 0.45 0.44 0.49 0.58 0.46 0.32 0.22 0.15 0.11 0.10 0.09 0.08 0.06 0.07 0.08 0.07 0.07 0.07 0.06 0.04 0.04 0.04 0.02 0.01 0.00 0.00 0.00 0.00 0.00
0.34 0.44 0.29 0.24 0.35 0.44 0.48 0.54 0.52 0.46 0.42 0.36 0.39 0.47 0.44 0.36 0.29 0.18 0.11 0.09 0.08 0.04 0.05 0.06 0.08 0.12 0.09 0.07 0.04 0.04 0.02 0.00 0.00 0.00 0.00 0.00 0.00 0.00
0.22 0.30 0.40 0.27 0.23 0.33 0.37 0.38 0.41 0.44 0.41 0.35 0.30 0.28 0.30 0.25 0.20 0.17 0.10 0.04 0.03 0.04 0.05 0.06 0.09 0.09 0.06 0.04 0.03 0.02 0.00 0.00 0.00 0.00 0.00 0.00 0.00 0.00
0.15 0.16 0.23 0.29 0.22 0.19 0.22 0.24 0.24 0.27 0.28 0.28 0.24 0.18 0.12 0.08 0.05 0.04 0.03 0.02 0.02 0.03 0.04 0.06 0.06 0.04 0.03 0.02 0.01 0.00 0.00 0.00 0.00 0.00 0.00 0.00 0.00 0.00